THOR ABLESTAR DEB, 13511

Orbit data source: Space-Track

THOR ABLESTAR DEB, 13511 is space debris in LEO originally from a launch on Thu, 29 Jun 1961 UTC launched from the Air Force Eastern Test Range (AFETR). Debris objects in space refer to the collection of defunct objects orbiting the Earth. Examples of debris include non-operational satellites, rocket bodies, and fragments generated from explosions, collisions, or faulty payload assembly.

Loading next visibility...
Identifier
13511, 1961-015KU
Orbit
LEO
Country
Flag of USUS
Related business
Manufacturer
Unknown
Mission
Spacecraft
Bus & Motor
Unknown
Mass
Unknown
Launch date (UTC)
1961-06-29 (64 years ago)
Launch vehicle
Unknown
Launch site
Air Force Eastern Test Range (AFETR)
Object type
Payload
Rocket body
Debris
Shape & HBR
Unknown shape, 0.1 m
Radar Cross Section
Small (<0.1 m²)

Expand to show TLE details & history
Last TLE update: 2 days ago

TLE from 2 days ago
0 THOR ABLESTAR DEB
1 13511U 61015KU  25348.32274812  .00000281  00000-0  40077-3 0  9997
2 13511  65.8423 312.8069 0129964 264.2755 248.3914 13.67729774265818
Epoch: 2025-12-14T07:44Z
TLE epoch observation values (Epoch: 2025-12-14T07:44:45.437Z)
Latitude
26.04369°
Longitude
-79.21474°
Altitude
1,046.396 km
Speed
7.313 km/s
True Right ascension
08h 00m 50s
True Declination
25° 54' 49"
Sunlit
Object was in full shadow at epoch
Visualization orbit readout
Latitude
Unknown
Longitude
Unknown
Altitude
Unknown
Speed
Unknown
Apparent Right ascension
Unknown
Apparent Declination
Unknown
Sunlit
N/A
Visualization observer readout
Local Sidereal Time
19:02:37
Azimuth
Unknown
Elevation
Unknown
Doppler factor
Unknown
Orbital elements
Apogee altitude
1,102.224 km
Perigee altitude
910.283 km
Semi-major axis
7,384.391 km
Eccentricity
0.013
Inclination
65.8423°
RAAN
312.8069°
Arg. of periapsis
264.2755°
True anomaly
247.01516°
Mean anomaly
248.3914°
Eccentric anomaly
247.70244°
Mean motion
3.42035 °/min
Orbital period
105.25 mins
BSTAR
0.00040077
Loading maneuver chart data...
Computing Atmospheric mass density...
Loading historical data...
Loading historical data...
Loading historical data...
Loading historical data...
Loading historical data...
Loading historical data...
Loading historical data...

Documentation

Showing up to 5 results
|